www.pogodaiklimat.ru

Погода и климат >> Архив погоды >> Таджикистан >> Кайракумское


ПОГОДА в Кайракумском

  • Прогноз погоды в Кайракумском
  • Монитор погоды в Кайракумском

АРХИВ ПОГОДЫ в Кайракумском

Время (UTC), дата Ветер
(напр.,м/с)
 
Видим.   Явления Облачность Т
(С)
Тd
(С)
f
(%)
Тe
(С)
Тes
(С)
Комфортность P
(гПа)
Po
(гПа)
Тmin
(С)
Tmax
(С)
R
(мм)
R24
(мм)
S
(см)
15 15.09 ЮЗ 3 н/о 9/9 1000 м
[Sc]
+19.9 +10.7 55 +22 +22 комфорт 1018.6 980.4 +27.5
18 15.09 ЮЗ 2 н/о 3/3 1000 м
[Sc]
+20.2 +5.9 39 +22 +22 комфорт 1018.6 980.4
21 15.09 штиль 0 н/о ясно +15.3 +8.1 62 +15 +15 1019.1 980.3
00 16.09 штиль 0 н/о ясно +10.6 +8.1 85 +10 +10 1020.4 980.9
03 16.09 штиль 0 20 км ясно +17.5 +8.4 55 +18 +21 1020.1 981.5 +10.2
06 16.09 З 2 20 км ясно +26.4 +7.4 30 +26 +38 жарко 1017.7 980.3
09 16.09 З 5 20 км ясно +28.1 +4.8 23 +27 +33 жарко 1016.3 979.2
12 16.09 З 4 20 км 9/8 1000 м
[Sc Ac trans]
+24.8 +6.5 31 +25 +25 комфорт 1017.0 979.4
15 16.09 З 4 н/о ясно +16.9 +10.2 65 +16 +16 1019.1 980.5 +28.3
18 16.09 штиль 0 н/о ясно +18.3 +7.3 49 +18 +18 1019.6 981.1
21 16.09 штиль 0 н/о ясно +16.1 +7.3 56 +16 +16 1019.5 980.7
00 17.09 штиль 0 н/о ясно +14.4 +9.8 74 +14 +14 1020.3 981.3
03 17.09 штиль 0 20 км ясно +18.2 +9.9 58 +18 +22 1020.9 982.4 +14.1
06 17.09 В 5 20 км ясно +22.8 +12.3 52 +26 +32 жарко 1020.5 982.6
09 17.09 В 4 20 км ясно +24.7 +13.8 51 +27 +34 жарко 1018.2 980.6
12 17.09 В 4 20 км ясно +24.6 +14.8 54 +27 +28 жарко 1016.8 979.2
15 17.09 В 5 н/о ясно +21.6 +15.4 68 +25 +25 комфорт 1017.1 979.1 +24.9
18 17.09 В 6 н/о ясно +20.8 +13.7 64 +23 +23 комфорт 1016.3 978.3
21 17.09 В 6 н/о ясно +21.1 +10.5 51 +23 +23 комфорт 1015.0 977.1
00 18.09 В 6 н/о ясно +18.5 +13.0 70 +19 +19 1014.9 976.6
03 18.09 В 6 20 км ясно +19.3 +13.1 67 +20 +21 1015.3 977.1 +18.1
06 18.09 В 4 20 км ясно +24.0 +12.5 49 +26 +34 жарко 1013.7 976.2
09 18.09 В 4 20 км ясно +25.7 +16.4 56 +29 +36 душно 1011.9 974.6
12 18.09 В 3 20 км ясно +26.3 +12.5 42 +28 +29 жарко 1010.9 973.8
15 18.09 ЮЗ 3 н/о ясно +15.7 +12.6 82 +15 +15 1014.1 975.5 +26.5
18 18.09 штиль 0 н/о ясно +15.0 +11.1 77 +15 +15 1015.4 976.7
21 18.09 штиль 0 н/о ясно +13.2 +9.0 76 +13 +13 1016.4 977.4
00 19.09 В 4 н/о ясно +18.3 +14.3 77 +19 +19 1016.2 977.9
03 19.09 В 4 20 км 4/4 1000 м
[Sc]
+19.5 +13.3 67 +21 +22 комфорт 1017.8 979.6 +13.0
06 19.09 В 5 20 км ясно +23.4 +13.8 55 +27 +33 душно 1017.1 979.4
09 19.09 В 4 20 км ясно +26.6 +15.7 51 +30 +37 душно 1014.1 976.9
12 19.09 В 3 20 км ясно +27.1 +14.0 45 +29 +31 жарко 1013.6 976.5
15 19.09 З 2 н/о ясно +17.7 +14.2 80 +18 +18 1015.8 977.4 +27.3
18 19.09 штиль 0 н/о ясно +15.1 +12.7 86 +15 +15 1015.8 977.1
21 19.09 штиль 0 н/о ясно +13.5 +11.4 87 +13 +13 1015.3 976.4
00 20.09 штиль 0 н/о ясно +12.0 +9.8 86 +11 +11 1016.3 977.1
03 20.09 штиль 0 20 км ясно +18.3 +14.7 80 +19 +22 1015.8 977.5 +11.7
06 20.09 В 2 20 км ясно +23.7 +14.2 55 +26 +37 жарко 1014.1 976.5
09 20.09 В 2 20 км ясно +29.1 +12.6 36 +30 +41 жарко 1011.2 974.4
12 20.09 штиль 0 20 км ясно +32.2 +15.9 38 +35 +37 очень
душно
1010.3 973.9
15 20.09 штиль 0 н/о ясно +20.6 +14.7 69 +23 +23 комфорт 1012.4 974.5 +32.4
18 20.09 штиль 0 н/о ясно +16.9 +13.3 79 +17 +17 1012.9 974.5
21 20.09 штиль 0 н/о ясно +15.1 +12.0 82 +15 +15 1012.2 973.6
00 21.09 штиль 0 н/о ясно +13.9 +11.4 85 +14 +14 1013.1 974.3
03 21.09 В 2 10 км ясно +20.6 +16.4 77 +24 +27 комфорт 1012.6 974.7 +13.5
06 21.09 В 2 10 км ясно +23.5 +17.7 70 +28 +38 душно 1011.2 973.7
09 21.09 штиль 0 10 км ясно +26.7 +19.0 63 +32 +46 очень
душно
1008.3 971.3
12 21.09 В 2 20 км ясно +29.7 +14.4 39 +32 +33 душно 1006.9 970.3
15 21.09 штиль 0 н/о ясно +19.3 +15.6 79 +21 +21 комфорт 1008.5 970.6 +30.0
18 21.09 штиль 0 н/о ясно +15.5 +14.3 93 +15 +15 1008.9 970.5
21 21.09 штиль 0 н/о ясно +14.2 +12.5 90 +14 +14 1009.3 970.7
00 22.09 В 2 н/о ясно +19.0 +16.7 87 +21 +21 комфорт 1009.2 971.2
03 22.09 В 3 10 км ясно +21.6 +17.7 78 +26 +28 душно 1009.8 972.1 +14.0
06 22.09 штиль 0 10 км ясно +25.4 +17.6 62 +30 +44 душно 1009.4 972.2
09 22.09 штиль 0 10 км ясно +28.4 +17.9 53 +33 +46 очень
душно
1007.3 970.5
12 22.09 штиль 0 20 км ясно +31.1 +18.4 47 +36 +38 очень
душно
1006.6 970.2

 

Местоположение метеостанции Кайракумское (Таджикистан): широта 40.30 долгота 69.80 высота над уровнем моря 328 м.

В архиве по умолчанию представлена погода в Кайракумском за последнюю неделю. Архивные данные за месяц целиком и за предыдущие месяцы, начиная с января 2011 года, Вы можете получить, выбрав интересующий диапазон дат из раскрывающегося списка и нажав кнопку "Ввод!".


*Определитесь, кто Вы:
робот инопланетянин человек

Внимание! Время в таблицах - всемирное. Для получения местного времени необходимо прибавить поправку, которая равна 5 ч.

Смотрите также архив погоды в соседних городах и на ближайших метеорологических станциях:

Погода в Худжанде (Таджикистан) (11 км)
Погода в Алмалыке (Ташкентская область, Узбекистан) (27 км)
Погода в Бекабаде (Ташкентская область, Узбекистан) (46 км)
Погода в Исфане (Баткенская область, Киргизия) (57 км)
Погода в Туябугузе (Ташкентская область, Узбекистан) (81 км)
Погода в Истаравшане (Таджикистан) (83 км)
Погода в Янгиере (Сырдарьинская область, Узбекистан) (83 км)
Погода в Ангрене (Ташкентская область, Узбекистан) (84 км)
Погода в Дуканте (Ташкентская область, Узбекистан) (97 км)
Погода в Мадрушкате (Таджикистан) (98 км)

Пояснения к столбцам:

Ветер - указаны скорость ветра в м/с - средняя за 10 мин, порывы в срок и между сроками (в фигурных скобках) и направление, откуда дует ветер: С - северный, СВ - северо-восточный, В - восточный, ЮВ - юго-восточный, Ю - южный, ЮЗ - юго-западный, З - западный, СЗ - северо-западный.
Видимость - горизонтальная дальность видимости в метрах или километрах. При видимости от 1 до 10 км при отсутствии осадков обычно наблюдается дымка, при ухудшении видимости до 1 км и менее - туман. В сухую погоду видимость может ухудшаться дымом, пылью или мглою.
Явления - указаны атмосферные явления, наблюдавшиеся в срок или в последний час перед сроком; фигурными скобками обозначены явления, наблюдавшиеся между сроками (за 1-3 часа до срока); квадратными скобками обозначены град или гололедные отложения с указанием их диаметра в мм.
Облачность - указаны через наклонную черту общая и нижняя облачность в баллах и высота нижней границы облаков в метрах; квадратными скобками обозначены формы облаков: Ci - перистые, Cs - перисто-слоистые, Cc - перисто-кучевые, Ac - высококучевые, As - высокослоистые, Sc - слоисто-кучевые, Ns - слоисто-дождевые, Cu - кучевые, Cb - кучево-дождевые. Подробнее классификацию облаков см. в Атласе облаков (PDF).
T - Температура воздуха - температура, измеренная на высоте 2 м над землей.
Td - Температура точки росы - температура, при понижении до которой содержащийся в воздухе водяной пар достигнет насыщения.
f - Относительная влажность воздуха - влажноcть воздуха, измеренная на высоте 2 м над землей.
Te - Эффективная температура - температура, которую ощущает одетый по сезону человек в тени. Характеристика душности погоды. При расчете учитывается влияние влажности воздуха и скорости ветра на теплоощущения человека.
Tes - Эффективная температура на солнце - температура, которую ощущает человек, с поправкой на солнечный нагрев. Характеристика знойности погоды. Зависит от высоты солнца над горизонтом, облачности и скорости ветра. Ночью, в пасмурную погоду, а также при ветре 12 м/с и более поправка равна нулю.
P - Атмосферное давление - приведенное к уровню моря атмосферное давление.
Po - Атмосферное давление - измеренное на уровне метеостанции атмосферное давление.
Tmin - Минимальная температура - минимум температуры воздуха на высоте 2 м над землей.
Tmax - Максимальная температура - максимум температуры воздуха на высоте 2 м над землей.
R - Количество осадков - Количество выпавших осадков за период времени, мм. При наведении курсора мыши на число - период времени, за который выпало указанное количество осадков.
R24 - Количество осадков - Количество выпавших осадков за 24 часа, мм.
S - Снежный покров - Высота снежного покрова, см. При наведении курсора мыши на число - состояние снежного покрова и степень покрытия местности в баллах.